357  
ASUS44 KLIX 221811  
RWRLIX  
NEW ORLEANS REGIONAL WEATHER ROUNDUP  
NATIONAL WEATHER SERVICE NEW ORLEANS LA  
100 PM CDT MON JUL 22 2019  
 
NOTE: "FAIR" INDICATES FEW OR NO CLOUDS BELOW 12,000 FEET WITH NO  
SIGNIFICANT WEATHER AND/OR S TO VISIBILITY
.  
SKY/WX - SKY CONDITION AND SIGNIFICANT WEATHER.  
TMP - AIR TEMPERATURE. DP - DEWPOINT TEMPERATURE.  
RH - RELATIVE HUMIDITY. PRES - PRESSURE.  
HI - HEAT INDEX. WCI - WIND CHILL INDEX.  
 
* THESE STATIONS ARE NOT NWS OR FAA STATIONS AND ARE NOT UNDER  
NWS QUALITY CONTROL.  
 
LAZ038-040-048-061>063-065>067-069-221900-  
SOUTHEAST LOUISIANA  
 
CITY SKY/WX TMP DP RH WIND PRES REMARKS
 
N.O. INTL ARPT HVY RAIN 83 74 74 E3G20 30.00S  
6HR MIN TEMP: 78; 6HR MAX TEMP: 89; 6HR PCP: 0.07;  
 
N.O. LAKEFRONT FAIR 87 74 64 NW6 30.00F HX 95  
6HR MIN TEMP: 79; 6HR MAX TEMP: 87;  
 
N.O. DOWNTOWN* LGT RAIN 85 74 69 CALM 30.00F  
6HR MIN TEMP: 79; 6HR MAX TEMP: 88; 6HR PCP: 0.01;  
 
RESERVE* CLOUDY 91 73 54 NW6 30.00F HX 100  
6HR MIN TEMP: 76; 6HR MAX TEMP: 93;  
 
SLIDELL FAIR 88 73 61 VRB7 29.99F HX 95  
6HR MIN TEMP: 75; 6HR MAX TEMP: 88; 6HR PCP: 0.16;  
 
BATON ROUGE FAIR 89 74 60 N8 29.99F HX 98  
6HR MIN TEMP: 73; 6HR MAX TEMP: 88;  
 
BOOTHVILLE FAIR 85 74 69 S10 30.02S  
6HR MIN TEMP: 78; 6HR MAX TEMP: 85; 6HR PCP: TRACE;  
 
BELLE CHASSE PTSUNNY 88 77 69 SW12 29.99F HX 100  
6HR MIN TEMP: 76; 6HR MAX TEMP: 89; 6HR PCP: 0.02;  
 
BOGALUSA* MOCLDY 88 73 61 N6 29.99F HX 96  
6HR MIN TEMP: 75; 6HR MAX TEMP: 88;  
 
GALLIANO* MOCLDY 89 72 56 W20 30.03R THUNDER HX 95  
6HR MIN TEMP: 74; 6HR MAX TEMP: 91;  
 
NEW ROADS* FAIR 84 73 70 W6 29.99F  
GONZALES* TSTM 75 73 91 W8 30.01S  
6HR MIN TEMP: 72; 6HR MAX TEMP: 86; 6HR PCP: 0.28;  
 
HAMMOND* PTSUNNY 84 73 70 NE7 29.99F  
HOUMA* PTSUNNY 79 73 83 W9 30.03S  
PORT FOURCHON* N/A 86 77 74 SW13G20 30.03S HX 97  
 

 
 
MSZ070-080>082-221900-  
SOUTHERN MISSISSIPPI  
 
CITY SKY/WX TMP DP RH WIND PRES REMARKS
 
MCCOMB PTSUNNY 86 72 62 NW3 29.99F  
6HR MIN TEMP: 72; 6HR MAX TEMP: 86;  
 
GULFPORT LGT RAIN 80 75 84 S7 30.00S  
6HR MIN TEMP: 75; 6HR MAX TEMP: 86; 6HR PCP: 0.12;  
 
BILOXI FAIR 85 74 69 SW12 30.00S  
6HR MIN TEMP: 75; 6HR MAX TEMP: 85; 6HR PCP: 1.16;  
 
PASCAGOULA FAIR 90 72 55 S8 30.00F HX 97  
6HR MIN TEMP: 76; 6HR MAX TEMP: 91; 6HR PCP: 0.04;  
 

 
 
COASTAL OBSERVATIONS  
LAKE AND NEARSHORE STATIONS  
 
STATION/POSITION TIME SKY/WX TEMP WIND PRES WAVE
 
AIR SEA DIR/SP/G HT/PER  
(UTC) (F) (DEG/KT/KT) (MB) (FT/S)  
WAVELAND YACHT 1718 77 85 290/ 5/ 15 1016.9  
GRAND ISLE 1730 83 85 220/ 9/ 15 1017.0  
SOUTHWEST PASS 1730 200/ 4/ 7 N/A  
NEW CANAL 1718 84 84 260/ 4/ 6 1015.3  
SHELL BEACH 1718 83 86 350/ 5/ 6 1016.4  
 
OFFSHORE STATIONS  
 
STATION/POSITION TIME SKY/WX TEMP WIND PRES WAVE
 
AIR SEA DIR/SP/G HT/PER  
(UTC) (F) (DEG/KT/KT) (MB) (FT/S)  
64 S DAUPHIN ISL 1800 83 220/ 4/ 4 1017.1  
 

 
 
 
 
CLICK HERE TO GO TO PREVIOUS BULLETINS.

The Nexlab LA Page
The Nexlab MS Page Main Text Page